Вернуться в каталог

COSMOS 1579 COOLANT

АктивенLEO
NORAD 26517·DEBRIS·🇷🇺 Russia

Запущен Jun 29, 1984 с Baikonur Cosmodrome

Loading…

Ближайшие Пролёты (ближайшие 24 часа)

TLE

УстаревшееSource: Space-Track

Эпоха: Sep 4, 2026, 05:39 UTC

1 26517U 84069J   26247.23606411  .00000005  00000-0  74294-4 0  9997
2 26517  65.0498  56.1010 0052041 323.4298 212.1018 13.91246586666346

Отслеживайте COSMOS 1579 COOLANT в реальном времени с AllMySat

Download on the App Store